Weather History for Columbia, MO

Change the Weather History Date:

Wednesday, May 7, 2014

  Actual Average Record
Temperature  
Mean Temperature 76 °F 62 °F  
Max Temperature 87 °F 72 °F 90 °F (1965)
Min Temperature 65 °F 51 °F 33 °F (1931)
Degree Days  
Heating Degree Days 0 5  
Month to date heating degree days 30 38  
Since 1 July heating degree days 5489 4941  
Cooling Degree Days 11 1  
Month to date cooling degree days 30 7  
Year to date cooling degree days 41 32  
Growing Degree Days 26 (Base 50)    
Moisture  
Dew Point 61 °F    
Average Humidity 62    
Maximum Humidity 78    
Minimum Humidity 45    
Precipitation  
Precipitation T in 0.17 in 3.17 in (1943)
Month to date precipitation T 1.19  
Year to date precipitation 11.77 12.76  
Snow  
Snow 0.00 in 0.00 in 0.00 in (2013)
Month to date snowfall 0.0 0.0  
Since 1 July snowfall 17.8 18.0  
Snow Depth 0.00 in    
Sea Level Pressure  
Sea Level Pressure 29.71 in    
Wind  
Wind Speed 15 mph (South)    
Max Wind Speed 23 mph    
Max Gust Speed 29 mph    
Visibility 10 miles    
Events      
T = Trace of Precipitation, MM = Missing Value Source: NWS Daily Summary

Daily Weather History Graph

Daily Weather History Graph

Search for Another Location

Airport:

Trip Planner

Search our weather history database for the weather conditions in past years. The results will help you decide how hot, cold, wet, or windy it might be!

Date:

Astronomy

May. 07, 2014 Rise Set
Actual Time 6:04 AM CDT 8:07 PM CDT
Civil Twilight 5:35 AM CDT 8:36 PM CDT
Nautical Twilight 4:59 AM CDT 9:12 PM CDT
Astronomical Twilight 4:20 AM CDT 9:51 PM CDT
Moon 1:16 PM CDT (5/7) 1:59 AM CDT (5/7)
Length of Visible Light 15h 01m
Length of Day
14h 02m
First Quarter, 55% of the Moon is Illuminated
May 7
First Quarter
May 14
Full
May 21
Last Quarter
May 28
New
Jun 5
First Quarter

Hourly Weather History & Observations

Time (CDT) Temp. Heat Index Dew Point Humidity Pressure Visibility Wind Dir Wind Speed Gust Speed Precip Events Conditions
12:54 AM 73.0 °F - 59.0 °F 61% 29.67 in 10.0 mi South 16.1 mph - N/A   Clear
1:54 AM 72.0 °F - 59.0 °F 64% 29.67 in 10.0 mi South 15.0 mph - N/A   Clear
2:54 AM 70.0 °F - 57.9 °F 65% 29.67 in 10.0 mi South 12.7 mph - N/A   Clear
3:54 AM 69.1 °F - 57.9 °F 68% 29.67 in 10.0 mi South 9.2 mph - N/A   Clear
4:54 AM 66.9 °F - 57.9 °F 73% 29.69 in 10.0 mi SSW 6.9 mph - N/A   Partly Cloudy
5:54 AM 66.0 °F - 57.9 °F 75% 29.70 in 10.0 mi SSE 6.9 mph - N/A   Clear
6:54 AM 66.0 °F - 59.0 °F 78% 29.72 in 10.0 mi SE 8.1 mph - N/A   Clear
7:54 AM 70.0 °F - 60.1 °F 71% 29.72 in 10.0 mi SSE 10.4 mph - N/A   Clear
8:54 AM 72.0 °F - 60.1 °F 66% 29.74 in 10.0 mi South 10.4 mph - N/A   Clear
9:54 AM 75.0 °F - 60.1 °F 60% 29.74 in 10.0 mi South 20.7 mph 24.2 mph N/A   Clear
10:43 AM 80.1 °F 80.9 °F 60.1 °F 50% 29.75 in 2.0 mi SSW 17.3 mph 24.2 mph N/A   Haze
10:52 AM 78.8 °F - 60.8 °F 54% 29.75 in 10.0 mi South 16.1 mph 24.2 mph N/A   Clear
10:54 AM 77.0 °F - 60.1 °F 56% 29.73 in 10.0 mi South 15.0 mph - N/A   Clear
11:54 AM 80.6 °F 81.5 °F 60.8 °F 51% 29.74 in 10.0 mi SSW 16.1 mph 26.5 mph N/A   Clear
12:54 PM 82.9 °F 83.3 °F 61.0 °F 47% 29.71 in 10.0 mi SW 16.1 mph - N/A   Clear
1:54 PM 84.9 °F 85.9 °F 63.0 °F 48% 29.70 in 10.0 mi South 17.3 mph - N/A   Clear
2:54 PM 86.0 °F 86.8 °F 63.0 °F 46% 29.69 in 10.0 mi South 16.1 mph - N/A   Clear
3:54 PM 87.1 °F 88.3 °F 64.0 °F 46% 29.68 in 10.0 mi SSE 18.4 mph - N/A   Clear
4:54 PM 86.0 °F 86.3 °F 62.1 °F 44% 29.69 in 10.0 mi SSE 20.7 mph 26.5 mph N/A   Clear
5:54 PM 84.9 °F 85.4 °F 62.1 °F 46% 29.70 in 10.0 mi South 17.3 mph 25.3 mph N/A   Clear
6:54 PM 81.0 °F 81.9 °F 62.1 °F 52% 29.70 in 10.0 mi South 13.8 mph 20.7 mph N/A   Clear
7:54 PM 80.1 °F 81.2 °F 62.1 °F 54% 29.72 in 10.0 mi South 15.0 mph - N/A   Clear
8:54 PM 79.0 °F - 63.0 °F 58% 29.73 in 10.0 mi South 18.4 mph - N/A   Clear
9:54 PM 77.0 °F - 63.0 °F 62% 29.75 in 10.0 mi South 16.1 mph 26.5 mph N/A   Clear
10:54 PM 75.0 °F - 63.0 °F 66% 29.76 in 10.0 mi South 17.3 mph 24.2 mph N/A   Clear
11:54 PM 73.9 °F - 62.1 °F 66% 29.77 in 10.0 mi South 15.0 mph - N/A   Clear